QPF
0.00 0.00 0.00 0.00 0.00 0.00 0.00 0.00 0.00 0.00 0.00 0.00 0.00 0.00 0.00 0.00 0.00 0.00 0.00 0.00 0.00 0.00 0.00 0.00 0.00 0.00 0.00 0.00 0.00 0.00 0.00 0.00 0.00 0.00 0.00 0.00 0.00 0.00 0.00 0.00 0.00 0.00 0.00 0.00
0.00 0.00 0.00 0.00 0.00 0.00 0.00 0.00 0.00 0.00 0.00 0.00 0.00 0.00 0.00 0.00 0.00 0.00 0.00 0.00 0.00 0.00 0.00 0.00 0.00 0.00 0.00 0.00 0.00 0.00 0.00 0.00 0.00 0.00 0.00 0.00 0.00 0.00 0.00 0.00 0.00 0.00 0.00 0.00
0.00 0.00 0.00 0.00 0.00 0.00 0.00 0.00 0.00 0.00 0.00 0.00 0.00 0.00 0.00 0.00 0.00 0.00 0.00 0.00 0.00 0.00 0.00 0.00 0.00 0.00 0.00 0.00 0.00 0.00 0.00 0.00 0.00 0.00 0.00 0.00 0.00 0.00 0.00 0.00 0.00 0.00 0.00 0.00
0.00 0.00 0.00 0.00 0.00 0.00 0.00 0.00 0.00 0.00 0.00 0.00 0.00 0.00 0.00 0.00 0.00 0.00 0.00 0.00 0.00 0.00 0.00 0.00 0.00 0.00 0.00 0.00 0.00 0.00 0.00 0.00 0.00 0.00 0.00 0.00 0.00 0.00 0.00 0.00 0.00 0.00 0.00 0.00
0.00 0.00 0.00 0.00 0.00 0.00 0.00 0.00 0.00 0.00 0.00 0.00 0.00 0.00 0.00 0.00 0.00 0.00 0.00 0.00 0.00 0.00 0.00 0.00 0.00 0.00 0.00 0.00 0.00 0.00 0.00 0.00 0.00 0.00 0.00 0.00 0.00 0.00 0.00 0.00 0.00 0.00 0.00 0.00
0.00 0.00 0.00 0.00 0.00 0.00 0.00 0.00 0.00 0.00 0.00 0.00 0.00 0.00 0.00 0.00 0.00 0.00 0.00 0.00 0.00 0.00 0.00 0.00 0.00 0.00 0.00 0.00 0.00 0.00 0.00 0.00 0.00 0.00 0.00 0.00 0.00 0.00 0.00 0.00 0.00 0.00 0.00 0.00
0.00 0.00 0.00 0.00 0.00 0.00 0.00 0.00 0.00 0.00 0.00 0.00 0.00 0.00 0.00 0.00 0.00 0.00 0.00 0.00 0.00 0.00 0.00 0.00 0.00 0.00 0.00 0.00 0.00 0.00 0.00 0.00 0.00 0.00 0.00 0.00 0.00 0.00 0.00 0.00 0.00 0.00 0.00 0.00
0.00 0.00 0.00 0.00 0.00 0.00 0.00 0.00 0.00 0.00 0.00 0.00 0.00 0.00 0.00 0.00 0.00 0.00 0.00 0.00 0.00 0.00 0.00 0.00 0.00 0.00 0.00 0.00 0.00 0.00 0.00 0.00 0.00 0.00 0.00 0.00 0.00 0.00 0.00 0.00 0.00 0.00 0.00 0.00
0.00 0.00 0.00 0.00 0.00 0.00 0.00 0.00 0.00 0.00 0.00 0.00 0.00 0.00 0.00 0.00 0.00 0.00 0.00 0.00 0.00 0.00 0.00 0.00 0.00 0.00 0.00 0.00 0.00 0.00 0.00 0.00 0.00 0.00 0.00 0.00 0.00 0.00 0.00 0.00 0.00 0.00 0.00 0.00
0.00 0.00 0.00 0.00 0.00 0.00 0.00 0.00 0.00 0.00 0.00 0.00 0.00 0.00 0.00 0.00 0.00 0.00 0.00 0.00 0.00 0.00 0.00 0.00 0.00 0.00 0.00 0.00 0.00 0.00 0.00 0.00 0.00 0.00 0.00 0.00 0.00 0.00 0.00 0.00 0.00 0.00 0.00 0.00
0.00 0.00 0.00 0.00 0.00 0.00 0.00 0.00 0.00 0.00 0.00 0.00 0.00 0.00 0.00 0.00 0.00 0.00 0.00 0.00 0.00 0.00 0.00 0.00 0.00 0.00 0.00 0.00 0.00 0.00 0.00 0.00 0.00 0.00 0.00 0.00 0.00 0.00 0.00 0.00 0.00 0.00 0.00 0.00
0.00 0.00 0.00 0.00 0.00 0.00 0.00 0.00 0.00 0.00 0.00 0.00 0.00 0.00 0.00 0.00 0.00 0.00 0.00 0.00 0.00 0.00 0.00 0.00 0.00 0.00 0.00 0.00 0.00 0.00 0.00 0.00 0.00 0.00 0.00 0.00 0.00 0.00 0.00 0.00 0.00 0.00 0.00 0.00
0.00 0.00 0.00 0.00 0.00 0.00 0.00 0.00 0.00 0.00 0.00 0.00 0.00 0.00 0.00 0.00 0.00 0.00 0.00 0.00 0.00 0.00 0.00 0.00 0.00 0.00 0.00 0.00 0.00 0.00 0.00 0.00 0.00 0.00 0.00 0.00 0.00 0.00 0.00 0.00 0.00 0.00 0.00 0.00
0.00 0.00 0.00 0.00 0.00 0.00 0.00 0.00 0.00 0.00 0.00 0.00 0.00 0.00 0.00 0.00 0.00 0.00 0.00 0.00 0.00 0.00 0.00 0.00 0.00 0.00 0.00 0.00 0.00 0.00 0.00 0.00 0.00 0.00 0.00 0.00 0.00 0.00 0.00 0.00 0.00 0.00 0.00 0.00
0.00 0.00 0.00 0.00 0.00 0.00 0.00 0.00 0.00 0.00 0.00 0.00 0.00 0.00 0.00 0.00 0.00 0.00 0.00 0.00 0.00 0.00 0.00 0.00 0.00 0.00 0.00 0.00 0.00 0.00 0.00 0.00 0.00 0.00 0.00 0.00 0.00 0.00 0.00 0.00 0.00 0.00 0.00 0.00
0.00 0.00 0.00 0.00 0.00 0.00 0.00 0.00 0.00 0.00 0.00 0.00 0.00 0.00 0.00 0.00 0.00 0.00 0.00 0.00 0.00 0.00 0.00 0.00 0.00 0.00 0.00 0.00 0.00 0.00 0.00 0.00 0.00 0.00 0.00 0.00 0.00 0.00 0.00 0.00 0.00 0.00 0.00 0.00
0.00 0.00 0.00 0.00 0.00 0.00 0.00 0.00 0.00 0.00 0.00 0.00 0.00 0.00 0.00 0.00 0.00 0.00 0.00 0.00 0.00 0.00 0.00 0.00 0.00 0.00 0.00 0.00 0.00 0.00 0.00 0.00 0.00 0.00 0.00 0.00 0.00 0.00 0.00 0.00 0.00 0.00 0.00 0.00
0.00 0.00 0.00 0.00 0.00 0.00 0.00 0.00 0.00 0.00 0.00 0.00 0.00 0.00 0.00 0.00 0.00 0.00 0.00 0.00 0.00 0.00 0.00 0.00 0.00 0.00 0.00 0.00 0.00 0.00 0.00 0.00 0.00 0.00 0.00 0.00 0.00 0.00 0.00 0.00 0.00 0.00 0.00 0.00
0.00 0.00 0.00 0.00 0.00 0.00 0.00 0.00 0.00 0.00 0.00 0.00 0.00 0.00 0.00 0.00 0.00 0.00 0.00 0.00 0.00 0.00 0.00 0.00 0.00 0.00 0.00 0.00 0.00 0.00 0.00 0.00 0.00 0.00 0.00 0.00 0.00 0.00 0.00 0.00 0.00 0.00 0.00 0.00
0.00 0.00 0.00 0.00 0.00 0.00 0.00 0.00 0.00 0.00 0.00 0.00 0.00 0.00 0.00 0.00 0.00 0.00 0.00 0.00 0.00 0.00 0.00 0.00 0.00 0.00 0.00 0.00 0.00 0.00 0.00 0.00 0.00 0.00 0.00 0.00 0.00 0.00 0.00 0.00 0.00 0.00 0.00 0.00
0.00 0.00 0.00 0.00 0.00 0.00 0.00 0.00 0.00 0.00 0.00 0.00 0.00 0.00 0.00 0.00 0.00 0.00 0.00 0.00 0.00 0.00 0.00 0.00 0.00 0.00 0.00 0.00 0.00 0.00 0.00 0.00 0.00 0.00 0.00 0.00 0.00 0.00 0.00 0.00 0.00 0.00 0.00 0.00
0.00 0.00 0.00 0.00 0.00 0.00 0.00 0.00 0.00 0.00 0.00 0.00 0.00 0.00 0.00 0.00 0.00 0.00 0.00 0.00 0.00 0.00 0.00 0.00 0.00 0.00 0.00 0.00 0.00 0.00 0.00 0.00 0.00 0.00 0.00 0.00 0.00 0.00 0.00 0.00 0.00 0.00 0.00 0.00
0.00 0.00 0.00 0.00 0.00 0.00 0.00 0.00 0.00 0.00 0.00 0.00 0.00 0.00 0.00 0.00 0.00 0.00 0.00 0.00 0.00 0.00 0.00 0.00 0.00 0.00 0.00 0.00 0.00 0.00 0.00 0.00 0.00 0.00 0.00 0.00 0.00 0.00 0.00 0.00 0.00 0.00 0.00 0.00
0.00 0.00 0.00 0.00 0.00 0.00 0.00 0.00 0.00 0.00 0.00 0.00 0.00 0.00 0.00 0.00 0.00 0.00 0.00 0.00 0.00 0.00 0.00 0.00 0.00 0.00 0.00 0.00 0.00 0.00 0.00 0.00 0.00 0.00 0.00 0.00 0.00 0.00 0.00 0.00 0.00 0.00 0.00 0.00
0.00 0.00 0.00 0.00 0.00 0.00 0.00 0.00 0.00 0.00 0.00 0.00 0.00 0.00 0.00 0.00 0.00 0.00 0.00 0.00 0.00 0.00 0.00 0.00 0.00 0.00 0.00 0.00 0.00 0.00 0.00 0.00 0.00 0.00 0.00 0.00 0.00 0.00 0.00 0.00 0.00 0.00 0.00 0.00
0.00 0.00 0.00 0.00 0.00 0.00 0.00 0.00 0.00 0.00 0.00 0.00 0.00 0.00 0.00 0.00 0.00 0.00 0.00 0.00 0.00 0.00 0.00 0.00 0.00 0.00 0.00 0.00 0.00 0.00 0.00 0.00 0.00 0.00 0.00 0.00 0.00 0.00 0.00 0.00 0.00 0.00 0.00 0.00
MSLP
1018.59 1019.18 1019.18 1018.87 1018.99 1019.03 1019.20 1019.45 1019.31 1018.58 1017.78 1017.96 1017.91 1018.09 1017.94 1018.13 1019.48 1020.97 1022.23 1023.14 1023.92 1024.24 1024.51 1024.13 1023.99 1023.76 1023.47 1023.14 1022.25 1021.73 1021.38 1020.99 1020.29 1019.76 1019.74 1020.00 1020.70 1020.74 1021.00 1021.12 1021.16 1020.75 1020.55 1020.33
1019.37 1019.07 1018.11 1018.61 1019.07 1019.39 1019.55 1019.68 1019.34 1018.94 1018.16 1018.60 1018.36 1018.48 1018.32 1018.80 1019.79 1020.97 1022.57 1023.62 1024.00 1024.45 1024.82 1024.86 1024.62 1024.44 1024.04 1023.73 1023.34 1022.78 1022.42 1022.41 1021.74 1021.42 1021.76 1021.71 1021.88 1022.64 1022.88 1022.73 1022.60 1022.56 1022.35 1022.04
1018.74 1018.17 1018.01 1018.47 1018.88 1019.39 1019.64 1019.60 1019.52 1019.36 1018.87 1018.86 1018.95 1018.90 1018.68 1019.85 1020.75 1021.62 1022.87 1023.76 1024.47 1024.74 1024.96 1025.16 1025.16 1025.06 1024.91 1024.55 1024.14 1023.57 1023.29 1023.02 1023.26 1023.02 1022.52 1022.80 1022.99 1023.31 1023.62 1024.04 1024.08 1024.13 1023.88 1023.73
1018.68 1017.78 1017.93 1018.25 1018.40 1018.80 1019.20 1018.72 1018.99 1019.33 1019.66 1019.61 1019.46 1019.41 1018.96 1019.71 1021.26 1022.56 1023.53 1024.31 1024.96 1025.09 1025.20 1025.28 1025.37 1025.48 1025.37 1025.13 1024.84 1024.47 1023.88 1023.60 1023.70 1023.98 1023.96 1024.06 1024.84 1025.31 1025.88 1025.76 1025.59 1025.42 1025.20 1024.92
1017.71 1017.57 1017.75 1018.02 1017.85 1018.27 1018.61 1018.80 1019.32 1019.81 1020.36 1020.54 1020.42 1020.64 1019.11 1020.05 1021.67 1022.94 1024.13 1024.88 1025.41 1025.71 1025.60 1025.63 1025.61 1025.80 1025.88 1025.74 1025.52 1024.84 1024.60 1024.60 1024.51 1024.66 1024.81 1025.04 1025.64 1026.20 1026.31 1026.35 1026.16 1025.93 1025.98 1025.96
1017.45 1017.14 1017.23 1017.10 1017.41 1017.88 1018.35 1019.27 1020.15 1020.89 1021.42 1021.55 1020.47 1020.63 1019.92 1020.06 1020.99 1022.71 1024.08 1024.89 1025.61 1025.86 1025.72 1025.79 1026.10 1026.06 1025.93 1026.03 1025.89 1025.38 1025.36 1025.50 1025.47 1025.57 1025.87 1026.53 1026.32 1026.80 1026.83 1027.02 1027.11 1027.14 1026.87 1026.58
1017.70 1017.15 1016.72 1016.88 1017.73 1018.00 1018.39 1019.40 1021.00 1021.99 1022.59 1021.61 1020.98 1021.25 1019.44 1019.87 1020.92 1021.75 1023.01 1024.46 1025.58 1026.16 1026.30 1026.20 1026.05 1026.29 1026.36 1026.30 1026.08 1026.19 1026.14 1026.32 1026.25 1026.22 1026.57 1026.88 1026.92 1027.07 1027.34 1027.64 1028.17 1027.93 1027.50 1027.47
1017.70 1017.35 1016.69 1016.62 1016.83 1017.56 1018.08 1018.71 1020.12 1021.48 1022.77 1022.29 1021.59 1020.89 1019.71 1020.38 1020.78 1020.94 1022.35 1023.81 1025.18 1025.81 1025.96 1026.28 1026.45 1026.53 1026.64 1026.59 1026.45 1026.58 1026.64 1026.67 1026.75 1026.87 1027.10 1026.96 1027.11 1027.39 1027.85 1028.12 1028.55 1028.89 1027.84 1027.95
1017.46 1017.28 1016.69 1016.35 1016.44 1017.07 1018.53 1019.11 1019.19 1020.58 1022.80 1022.95 1021.07 1020.14 1020.51 1021.58 1021.92 1022.55 1023.71 1024.28 1024.65 1025.27 1025.74 1026.13 1026.35 1026.46 1026.56 1026.78 1026.72 1026.75 1026.88 1027.07 1027.03 1027.13 1027.42 1027.39 1027.46 1027.86 1028.36 1028.64 1028.72 1028.62 1028.24 1028.16
1016.38 1017.28 1017.38 1017.07 1016.92 1017.44 1018.00 1018.36 1019.93 1021.00 1022.26 1022.22 1020.85 1020.61 1020.03 1021.28 1022.15 1022.78 1023.75 1024.35 1024.79 1025.10 1025.40 1025.67 1025.96 1026.44 1026.64 1026.71 1026.95 1026.98 1027.07 1027.32 1027.54 1027.69 1027.84 1028.00 1028.25 1028.40 1028.56 1028.77 1028.97 1028.73 1028.71 1028.42
1016.38 1016.89 1018.03 1017.98 1017.70 1017.43 1018.34 1018.80 1019.22 1020.42 1020.88 1020.91 1020.78 1019.55 1019.13 1019.72 1021.17 1022.43 1022.87 1023.65 1024.26 1024.62 1024.78 1025.20 1025.75 1026.20 1026.50 1026.76 1026.95 1027.16 1027.28 1027.54 1027.81 1027.92 1028.15 1028.43 1028.56 1028.55 1028.55 1028.62 1028.76 1028.70 1028.41 1028.08
1016.20 1016.75 1018.05 1018.39 1018.08 1017.87 1017.89 1018.20 1018.63 1019.86 1020.64 1020.78 1020.53 1018.84 1018.99 1019.50 1020.37 1021.31 1022.29 1023.03 1023.70 1024.11 1024.43 1024.90 1025.31 1025.85 1026.23 1026.51 1026.85 1027.12 1027.47 1027.61 1027.67 1027.84 1028.09 1028.32 1028.48 1028.56 1028.54 1028.60 1028.54 1028.43 1028.23 1028.04
1016.28 1016.97 1018.00 1018.55 1019.19 1018.38 1018.57 1018.88 1019.17 1019.73 1020.12 1020.20 1020.97 1019.38 1019.75 1020.09 1020.45 1021.07 1021.85 1022.44 1022.99 1023.49 1024.09 1024.68 1025.17 1025.53 1025.86 1026.14 1026.45 1026.80 1027.24 1027.43 1027.54 1027.76 1028.00 1028.23 1028.40 1028.60 1028.58 1028.54 1028.39 1028.30 1028.23 1028.20
1016.11 1016.60 1017.25 1017.56 1018.70 1018.50 1018.75 1019.12 1019.52 1019.87 1020.52 1020.36 1019.64 1019.90 1020.44 1020.67 1020.88 1021.16 1021.63 1022.17 1022.63 1022.98 1023.70 1024.27 1024.84 1025.10 1025.49 1025.88 1026.20 1026.52 1026.91 1027.09 1027.32 1027.57 1027.83 1027.96 1028.21 1028.46 1028.50 1028.47 1028.42 1028.35 1028.24 1028.16
1017.29 1017.68 1018.08 1018.05 1018.60 1018.94 1018.68 1018.96 1019.39 1019.82 1019.94 1020.33 1020.02 1020.24 1020.03 1020.47 1020.81 1021.11 1021.49 1021.94 1022.44 1022.83 1023.21 1023.51 1023.96 1024.54 1025.15 1025.68 1025.90 1026.25 1026.60 1026.82 1027.09 1027.42 1027.74 1028.05 1028.29 1028.44 1028.47 1028.38 1028.31 1028.21 1028.07 1027.97
1018.00 1018.42 1019.15 1019.37 1019.82 1019.63 1019.42 1019.08 1019.68 1019.81 1020.47 1020.66 1020.57 1019.92 1020.05 1020.42 1020.77 1021.39 1021.70 1021.90 1022.28 1022.53 1022.96 1023.28 1023.73 1024.33 1024.83 1025.22 1025.44 1025.75 1026.08 1026.47 1026.88 1027.38 1027.98 1028.10 1028.25 1028.36 1028.48 1028.49 1028.45 1028.34 1028.21 1028.11
1018.91 1019.70 1020.49 1020.56 1021.11 1020.98 1020.24 1018.74 1018.89 1019.44 1019.73 1020.10 1020.37 1019.52 1020.37 1020.51 1021.00 1021.22 1021.64 1021.94 1022.17 1022.40 1022.51 1022.89 1023.30 1023.74 1024.24 1024.62 1024.72 1025.20 1025.61 1026.27 1027.10 1027.76 1028.05 1028.06 1028.23 1028.51 1028.75 1028.80 1028.71 1028.65 1028.54 1028.35
1019.39 1020.62 1021.34 1022.27 1022.98 1021.62 1018.24 1018.08 1018.34 1019.07 1019.47 1020.03 1020.42 1020.43 1020.52 1020.70 1020.80 1021.00 1021.24 1021.53 1021.89 1022.10 1022.36 1022.70 1023.01 1023.49 1023.73 1023.99 1024.46 1024.87 1025.51 1026.39 1027.14 1027.52 1027.89 1028.03 1028.35 1028.67 1028.80 1028.83 1028.89 1028.86 1028.75 1028.56
1019.47 1020.83 1021.77 1022.92 1023.22 1020.85 1018.52 1018.34 1018.69 1019.31 1019.52 1019.80 1020.44 1020.72 1021.02 1021.38 1021.58 1021.59 1021.47 1021.57 1021.67 1021.93 1022.07 1022.42 1022.71 1023.12 1023.41 1023.84 1024.34 1024.96 1025.74 1026.36 1026.84 1027.31 1027.78 1028.23 1028.61 1028.91 1029.00 1029.14 1029.12 1029.06 1028.89 1028.65
1020.45 1020.85 1021.57 1023.37 1023.46 1021.41 1018.76 1018.39 1018.40 1019.00 1020.06 1019.85 1020.20 1020.93 1021.38 1021.72 1022.06 1021.12 1020.87 1021.28 1021.52 1021.72 1022.03 1022.22 1022.53 1023.13 1023.64 1024.03 1024.46 1025.07 1025.80 1026.37 1026.94 1027.45 1027.99 1028.57 1028.95 1029.21 1029.41 1029.41 1029.33 1029.15 1029.08 1028.51
1021.85 1022.16 1021.94 1022.44 1022.63 1020.68 1019.13 1018.88 1018.98 1020.07 1019.49 1019.58 1020.25 1020.66 1021.34 1021.71 1020.74 1020.26 1020.48 1021.03 1021.15 1021.42 1021.73 1021.93 1022.54 1023.10 1023.50 1024.28 1024.79 1025.41 1025.96 1026.38 1026.82 1027.48 1028.08 1028.62 1029.08 1029.43 1029.48 1029.36 1029.26 1029.09 1028.83 1028.35
1020.82 1022.06 1022.24 1022.55 1022.55 1020.59 1018.28 1019.17 1019.27 1018.50 1018.79 1019.18 1019.84 1019.97 1020.31 1020.03 1019.94 1020.28 1020.51 1020.90 1021.10 1021.23 1021.51 1021.84 1022.63 1023.20 1023.73 1024.42 1025.01 1025.65 1026.21 1026.61 1027.19 1027.76 1028.24 1028.73 1029.11 1029.25 1029.13 1029.10 1029.00 1028.80 1028.53 1028.14
1020.23 1019.20 1019.84 1019.98 1019.00 1018.05 1017.80 1017.34 1017.24 1017.62 1017.91 1018.55 1018.77 1018.91 1019.32 1019.66 1019.92 1019.80 1020.16 1020.68 1020.81 1021.00 1021.35 1021.70 1022.53 1023.34 1024.01 1024.58 1025.21 1025.91 1026.35 1026.93 1027.65 1028.26 1028.76 1029.01 1029.12 1029.06 1028.92 1028.88 1028.62 1028.34 1027.96 1027.54
1018.66 1018.22 1018.30 1018.64 1017.75 1017.67 1017.42 1017.10 1017.08 1017.34 1017.56 1017.54 1017.73 1018.32 1018.79 1019.20 1019.29 1019.45 1019.70 1020.04 1020.32 1020.63 1021.26 1021.82 1022.78 1023.54 1024.29 1024.84 1025.50 1026.01 1026.65 1027.28 1027.96 1028.58 1028.87 1029.01 1029.12 1028.89 1028.64 1028.44 1028.02 1027.58 1027.12 1026.60
1016.85 1017.17 1016.98 1017.32 1017.09 1017.22 1016.82 1016.52 1016.35 1016.63 1016.98 1017.43 1017.68 1018.10 1018.27 1018.67 1018.90 1019.19 1019.40 1019.65 1019.90 1020.36 1021.14 1021.79 1022.48 1023.26 1024.15 1025.05 1025.75 1026.31 1026.92 1027.48 1028.28 1028.58 1028.63 1028.64 1028.64 1028.52 1028.24 1027.86 1027.25 1026.62 1025.93 1025.46
1015.33 1014.66 1015.74 1015.51 1015.20 1015.30 1015.40 1015.22 1015.38 1016.22 1016.47 1016.93 1017.43 1017.65 1017.71 1018.23 1018.45 1018.64 1018.90 1019.02 1019.57 1020.24 1021.06 1021.96 1022.70 1023.51 1024.37 1025.14 1025.87 1026.44 1026.91 1027.45 1028.09 1028.40 1028.39 1028.30 1028.27 1028.03 1027.75 1027.31 1026.46 1025.83 1024.66 1023.83
Thickness
5649 5637 5636 5641 5641 5646 5644 5634 5634 5642 5651 5648 5642 5638 5649 5655 5643 5626 5618 5614 5607 5605 5603 5605 5604 5603 5604 5604 5612 5615 5616 5618 5621 5623 5623 5619 5610 5611 5608 5605 5603 5604 5604 5604
5632 5628 5650 5645 5637 5633 5630 5626 5624 5629 5640 5629 5630 5632 5642 5643 5636 5628 5607 5599 5599 5595 5591 5591 5592 5592 5594 5595 5595 5597 5599 5597 5602 5603 5597 5597 5595 5587 5583 5584 5584 5582 5582 5583
5626 5641 5642 5638 5629 5623 5619 5615 5618 5619 5628 5625 5621 5616 5633 5617 5608 5605 5595 5589 5583 5581 5579 5577 5577 5577 5577 5579 5580 5583 5583 5582 5577 5577 5581 5577 5574 5573 5569 5562 5561 5559 5559 5558
5620 5636 5635 5627 5628 5621 5613 5623 5621 5619 5613 5602 5616 5599 5621 5621 5598 5589 5580 5574 5570 5569 5568 5567 5565 5564 5564 5564 5565 5566 5570 5570 5565 5558 5556 5553 5545 5541 5536 5537 5536 5535 5536 5537
5624 5628 5621 5618 5621 5620 5615 5617 5610 5610 5598 5597 5600 5590 5605 5607 5599 5580 5567 5561 5557 5553 5554 5555 5554 5551 5548 5546 5545 5549 5549 5546 5544 5542 5538 5533 5526 5520 5517 5515 5515 5516 5513 5512
5618 5623 5621 5622 5620 5615 5612 5605 5591 5579 5578 5565 5595 5591 5592 5601 5604 5570 5557 5550 5545 5540 5541 5540 5536 5533 5532 5528 5526 5528 5527 5524 5523 5522 5517 5508 5509 5503 5500 5496 5493 5490 5491 5491
5606 5609 5618 5618 5608 5606 5602 5590 5570 5561 5550 5570 5576 5571 5598 5598 5578 5573 5560 5543 5532 5527 5521 5520 5519 5515 5512 5510 5511 5508 5507 5504 5502 5499 5495 5491 5489 5486 5482 5477 5471 5471 5471 5469
5590 5593 5601 5605 5605 5595 5587 5588 5568 5560 5548 5563 5567 5569 5597 5563 5556 5564 5552 5538 5523 5515 5514 5508 5502 5498 5494 5492 5491 5488 5486 5484 5481 5478 5475 5476 5473 5469 5463 5459 5453 5447 5454 5450
5576 5582 5597 5598 5601 5597 5577 5570 5579 5560 5480 5512 5563 5572 5558 5541 5536 5531 5523 5517 5512 5506 5499 5494 5489 5485 5480 5476 5473 5470 5466 5463 5461 5460 5456 5454 5451 5447 5440 5436 5434 5433 5432 5427
5590 5573 5581 5584 5586 5581 5576 5572 5549 5529 5523 5497 5549 5551 5563 5536 5528 5518 5510 5507 5498 5492 5487 5482 5476 5470 5465 5460 5454 5450 5447 5444 5440 5438 5435 5431 5427 5423 5421 5416 5412 5410 5407 5406
5575 5570 5562 5566 5564 5565 5557 5552 5553 5544 5526 5517 5499 5548 5546 5544 5523 5511 5507 5498 5487 5481 5478 5472 5463 5457 5449 5443 5438 5433 5429 5424 5420 5417 5412 5408 5404 5402 5398 5395 5392 5390 5389 5387
5567 5554 5522 5546 5549 5546 5555 5551 5550 5537 5528 5497 5507 5545 5524 5532 5514 5503 5495 5487 5476 5469 5463 5456 5450 5442 5435 5429 5423 5418 5413 5408 5403 5398 5393 5389 5385 5381 5377 5373 5370 5368 5365 5362
5554 5531 5496 5533 5536 5538 5536 5536 5531 5514 5498 5493 5501 5524 5505 5498 5496 5490 5481 5470 5464 5458 5449 5441 5434 5428 5422 5417 5410 5403 5396 5390 5384 5378 5372 5367 5362 5356 5352 5349 5346 5342 5339 5336
5545 5531 5534 5540 5527 5519 5518 5512 5505 5505 5479 5512 5514 5506 5484 5485 5481 5477 5467 5458 5449 5445 5435 5424 5419 5414 5408 5401 5394 5386 5378 5372 5364 5358 5352 5347 5340 5332 5327 5323 5318 5314 5311 5308
5522 5508 5499 5510 5511 5502 5508 5504 5485 5482 5481 5471 5488 5475 5485 5473 5462 5453 5448 5442 5434 5429 5420 5417 5411 5402 5392 5384 5376 5368 5361 5354 5347 5339 5331 5324 5316 5308 5302 5297 5292 5288 5284 5281
5492 5476 5471 5469 5479 5483 5485 5487 5475 5480 5462 5446 5452 5460 5476 5456 5445 5435 5428 5425 5419 5415 5407 5401 5394 5385 5377 5369 5361 5351 5342 5333 5324 5316 5306 5299 5291 5284 5278 5273 5269 5266 5263 5259
5470 5451 5453 5482 5442 5440 5443 5457 5466 5467 5463 5458 5447 5464 5418 5434 5424 5418 5413 5411 5405 5401 5396 5388 5380 5371 5360 5351 5344 5334 5324 5313 5300 5289 5280 5275 5269 5262 5257 5253 5249 5246 5243 5240
5448 5435 5424 5418 5384 5422 5473 5454 5456 5449 5444 5428 5415 5398 5402 5413 5414 5408 5401 5394 5390 5386 5381 5372 5362 5351 5344 5336 5326 5316 5303 5290 5277 5268 5261 5256 5251 5245 5242 5237 5232 5228 5225 5221
5441 5429 5403 5410 5368 5410 5448 5441 5431 5425 5427 5413 5408 5394 5394 5390 5384 5386 5380 5374 5372 5364 5358 5351 5344 5336 5328 5318 5306 5293 5280 5270 5262 5254 5247 5239 5233 5228 5224 5218 5214 5209 5206 5202
5417 5416 5420 5340 5358 5373 5431 5422 5412 5408 5377 5389 5383 5370 5362 5365 5347 5368 5364 5362 5353 5347 5340 5333 5325 5316 5305 5295 5285 5273 5262 5252 5244 5237 5229 5221 5215 5208 5203 5199 5195 5192 5186 5185
5362 5367 5395 5378 5369 5352 5379 5382 5393 5351 5391 5360 5360 5363 5348 5345 5358 5361 5353 5343 5338 5331 5323 5315 5304 5294 5284 5272 5264 5255 5247 5240 5232 5223 5214 5206 5199 5192 5188 5185 5179 5174 5170 5167
5371 5347 5345 5328 5299 5333 5380 5361 5365 5372 5358 5357 5354 5357 5347 5351 5351 5342 5336 5326 5318 5313 5305 5297 5282 5273 5264 5255 5247 5239 5232 5225 5216 5208 5200 5192 5183 5178 5175 5169 5164 5158 5153 5150
5371 5384 5361 5365 5362 5369 5357 5365 5365 5359 5354 5348 5349 5348 5339 5334 5330 5328 5319 5308 5302 5295 5286 5277 5266 5255 5246 5238 5231 5223 5217 5209 5200 5190 5182 5175 5170 5166 5161 5154 5151 5146 5139 5135
5361 5366 5359 5355 5363 5352 5345 5347 5347 5343 5346 5345 5339 5331 5320 5318 5315 5311 5302 5297 5288 5278 5266 5257 5247 5239 5229 5221 5215 5208 5201 5192 5182 5174 5167 5161 5155 5152 5147 5143 5139 5135 5129 5126
5370 5363 5346 5335 5351 5339 5332 5332 5337 5330 5326 5324 5317 5310 5307 5299 5299 5291 5287 5279 5274 5267 5252 5244 5238 5230 5219 5208 5199 5191 5184 5176 5167 5160 5155 5150 5144 5139 5136 5132 5129 5125 5122 5118
5369 5379 5346 5331 5352 5340 5336 5331 5328 5321 5318 5307 5298 5296 5292 5284 5284 5278 5274 5271 5263 5253 5240 5231 5221 5213 5202 5193 5184 5176 5168 5160 5152 5147 5142 5137 5131 5127 5124 5121 5121 5116 5117 5116